Regional Weather Roundup
Issued by NWS Sterling, VA

Home | Current Version | Previous Version | Graphics & Text | Print | Product List | Glossary On
Versions: 1 2 3 4 5 6 7 8 9 10 11 12 13 14 15 16 17 18 19 20 21 22 23 24 25 26 27 28 29 30 31 32 33 34 35 36 37 38 39 40 41 42 43 44 45 46 47 48 49 50
000
ASUS41 KLWX 251710
RWRLWX

REGIONAL WEATHER ROUNDUP
NATIONAL WEATHER SERVICE BALTIMORE MD/WASHINGTON DC
100 PM EDT FRI JUL 25 2014

Note: "FAIR" indicates few or no clouds below 12,000 feet
with no significant weather and/or obstructions to visibility.
 TC=TEMPERATURE CELSIUS

 * =Non NWS site. Station does not report precipitation (e.g. rain,
    snow, etc.), thunder, or fog.

DCZ001-MDZ009-015-VAZ040>042-051-053>054-251800-
WASHINGTON METRO
  /KDAA//-FT BELVOIR

CITY           SKY/WX    TMP DP  RH WIND       PRES   REMARKS
WASHINGTON NAT MOSUNNY   82  53  36 N14G21    30.06F
DULLES         MOSUNNY   78  51  38 W9        30.06F
ANDREWS AFB    SUNNY     78  53  42 N10       30.05F
QUANTICO       MOSUNNY   79  55  43 VRB6      30.06F
COLLEGE PARK*  SUNNY     79  52  38 N9        30.05S
LEESBURG*      SUNNY     77  59  53 N3        30.07F
MANASSAS*      SUNNY     81  55  41 N6        30.06
GAITHERSBURG*  SUNNY     75  55  50 N3        30.10S

$$

MDZ006>007-011-014-251800-
BALTIMORE METRO

CITY           SKY/WX    TMP DP  RH WIND       PRES   REMARKS
BWI AIRPORT    MOSUNNY   80  51  36 NW8G20    30.04F
MD SCIENCE CTR   N/A     77  49  37 MISG      30.04F
MARTIN STATE   SUNNY     79  52  38 W6        30.05F
ANNAPOLIS      SUNNY     77  52  41 NW3       30.04F
FORT MEADE*    SUNNY     77  54  44 W10       30.07S

$$

MDZ012-015-019>023-251800-
MARYLAND EASTERN SHORE

CITY           SKY/WX    TMP DP  RH WIND       PRES   REMARKS
OCEAN CITY     SUNNY     77  65  66 E10       30.02F
SALISBURY      NOT AVBL
BAY BRIDGE AP*   N/A     77  50  38 N6        30.05S
CAMBRIDGE*     SUNNY     77  48  36 NW8G18    30.04S
EASTON*        SUNNY     77  54  44 NW12      30.08F

$$

MDZ017>025-251800-
SOUTHERN MARYLAND

CITY           SKY/WX    TMP DP  RH WIND       PRES   REMARKS
PATUXENT RIVER MOSUNNY   77  55  46 NW10      30.05F
ST INIGOES     SUNNY     79  53  40 N8        30.04F
LEONARDTOWN*   MOSUNNY   77  54  44 NW5       30.06F

$$

MDZ003>005-251800-
NORTH CENTRAL MARYLAND

CITY           SKY/WX    TMP DP  RH WIND       PRES   REMARKS
FREDERICK*     SUNNY     79  57  47 N8        30.09F
HAGERSTOWN APT SUNNY     75  52  44 VRB3      30.07F
WESTMINSTER*   SUNNY     75  54  46 NW9       30.07F

$$

MDZ501>502-251800-
WESTERN MARYLAND

CITY           SKY/WX    TMP DP  RH WIND       PRES   REMARKS
OAKLAND*       SUNNY     68  46  45 W3        30.14F
CUMBERLAND*    SUNNY     82  55  39 N3        30.09F

$$

VAZ025>031-251800-
SHENANDOAH VALLEY

CITY           SKY/WX    TMP DP  RH WIND       PRES   REMARKS
WINCHESTER*    MOSUNNY   77  54  44 CALM      30.06F
STAUNTON*      MOSUNNY   75  58  55 CALM      30.11S

$$

WVZ021-048>050-054>055-251800-
EASTERN WEST VIRGINIA PANHANDLE

CITY           SKY/WX    TMP DP  RH WIND       PRES   REMARKS
MARTINSBURG    SUNNY     78  53  41 MISG      30.07F
PETERSBURG*    SUNNY     79  51  37 SE5       30.07F

$$

VAZ036>039-050-251800-
CENTRAL FOOTHILLS

CITY           SKY/WX    TMP DP  RH WIND       PRES   REMARKS
CHARLOTTESVILL SUNNY     77  60  55 MISG      30.07F
ORANGE*        SUNNY     77  55  47 W5        30.09S

$$

VAZ055>057-251800-
NORTH AND CENTRAL PIEDMONT

CITY           SKY/WX    TMP DP  RH WIND       PRES   REMARKS
FREDERICKSBRG* SUNNY     80  58  46 W5        30.05F
STAFFORD*      SUNNY     78  55  45 CALM      30.10F

$$

NCZ024-NYZ072-PAZ021-071-VAZ022-071-251800-
OTHER REGIONAL OBSERVATIONS

CITY           SKY/WX    TMP DP  RH WIND       PRES   REMARKS
NEW YORK CITY  SUNNY     78  54  43 CALM      30.03F
PHILADELPHIA   MOSUNNY   79  53  40 S6        30.01F
PITTSBURGH     MOSUNNY   72  45  37 CALM      30.08F
ROANOKE        PTSUNNY   77  60  55 SE9       30.09F
RICHMOND       MOSUNNY   83  56  39 CALM      30.06F
RALEIGH        PTSUNNY   81  66  61 CALM      30.08S

$$

ANZ530>537-251800-
MARINE OBSERVATIONS

STATION/POSITION TIME  TEMP    WIND        PRES
                       AIR SEA DIR/SP/G
                 (UTC) (F)     (DEG/KT/KT) (MB)
THOMAS PT LIGHT  1700   74 79  360/  8/  9 1017.8F
BALT KEY BRIDGE  1700   78     280/  8/ 10 1017.2S
COVE POINT       1700   72      30/  6/  8 1017.7S
LEWISETTA        1700   76 78  330/  8/ 11 1017.4F
SOLOMONS ISLAND  1700      80                N/A
PINEY POINT      1700          310/  9/ 10   N/A

$$



USA.gov is the U.S. government's official web portal to all federal, state and local government web resources and services.